Houston Hull, TX

2:59 AM CST on December 07, 2019 (GMT -0600)
Sugar Land Municipal-Hull

Weather History for KSGR - October, 2019

Change the Weather History Date:

Saturday, October 5, 2019

  Actual Average Record
Temperature  
Mean Temperature 82 °F -  
Max Temperature 93 °F 86 °F 95 °F (1986)
Min Temperature 72 °F 63 °F 48 °F (1975)
Cooling Degree Days 18    
Growing Degree Days 32 (Base 50)    
Moisture  
Dew Point 73 °F    
Average Humidity 77    
Maximum Humidity 97    
Minimum Humidity 44    
Precipitation  
Precipitation 0.00 in - - ()
Sea Level Pressure  
Sea Level Pressure 29.96 in    
Wind  
Wind Speed 3 mph (ENE)    
Max Wind Speed 12 mph    
Max Gust Speed -    
Visibility 10 miles    
Events      
Averages and records for this station are not official NWS values.
T = Trace of Precipitation, MM = Missing Value Source: NWS Daily Summary

Daily Weather History Graph

Daily Weather History Graph

Search for Another Location

Airport or City:

Astronomy

Oct. 05, 2019 Rise Set
Actual Time 7:18 AM CDT 7:03 PM CDT
Civil Twilight 6:54 AM CDT 7:27 PM CDT
Nautical Twilight 6:26 AM CDT 7:55 PM CDT
Astronomical Twilight 5:58 AM CDT 8:22 PM CDT
Moon 2:20 PM CDT (10/5) No Moon Set
Length of Visible Light 12h 33m
Length of Day
11h 45m
Waxing Crescent, 50% of the Moon is Illuminated
Oct 5
Waxing Crescent
Oct 13
Full
Oct 21
Last Quarter
Oct 27
New
Nov 4
First Quarter

Hourly Weather History & Observations

Time (CDT) Temp. Heat Index Dew Point Humidity Pressure Visibility Wind Dir Wind Speed Gust Speed Precip Events Conditions
12:53 AM 73.0 °F - 72.0 °F 96% 29.99 in 10.0 mi WSW 3.5 mph - N/A   Clear
1:53 AM 73.9 °F - 72.0 °F 93% 29.98 in 10.0 mi Calm Calm - N/A   Clear
2:53 AM 73.9 °F - 72.0 °F 93% 29.98 in 10.0 mi Calm Calm - N/A   Clear
3:53 AM 72.0 °F - 71.1 °F 97% 29.98 in 9.0 mi West 4.6 mph - N/A   Clear
4:53 AM 73.9 °F - 72.0 °F 93% 29.97 in 10.0 mi North 3.5 mph - N/A   Clear
5:53 AM 73.9 °F - 72.0 °F 93% 29.98 in 10.0 mi North 5.8 mph - N/A   Clear
6:53 AM 72.0 °F - 71.1 °F 97% 29.99 in 8.0 mi Calm Calm - N/A   Clear
7:53 AM 73.0 °F - 72.0 °F 96% 29.99 in 8.0 mi NNE 3.5 mph - N/A   Clear
8:53 AM 78.1 °F - 73.0 °F 84% 30.00 in 10.0 mi NNE 3.5 mph - N/A   Clear
9:53 AM 82.0 °F 87.9 °F 73.9 °F 76% 30.00 in 10.0 mi Calm Calm - N/A   Clear
10:53 AM 86.0 °F 95.1 °F 75.0 °F 70% 30.00 in 10.0 mi NE 3.5 mph - N/A   Clear
11:53 AM 88.0 °F 97.5 °F 75.0 °F 65% 30.00 in 10.0 mi Calm Calm - N/A   Clear
12:53 PM 91.0 °F 102.9 °F 75.9 °F 61% 29.98 in 10.0 mi NNE 5.8 mph - N/A   Clear
1:53 PM 91.9 °F 101.3 °F 73.9 °F 55% 29.95 in 10.0 mi Calm Calm - N/A   Partly Cloudy
2:53 PM 93.0 °F 101.9 °F 73.0 °F 52% 29.92 in 10.0 mi Variable 4.6 mph - N/A   Scattered Clouds
3:53 PM 93.9 °F 99.1 °F 69.1 °F 44% 29.91 in 10.0 mi NNE 3.5 mph - N/A   Partly Cloudy
4:53 PM 93.0 °F 99.0 °F 70.0 °F 47% 29.89 in 10.0 mi NNE 4.6 mph - N/A   Clear
5:53 PM 91.0 °F 95.6 °F 69.1 °F 48% 29.88 in 10.0 mi East 6.9 mph - N/A   Clear
6:53 PM 86.0 °F 96.0 °F 75.9 °F 72% 29.90 in 10.0 mi SSE 11.5 mph - N/A   Partly Cloudy
7:53 PM 84.0 °F 91.9 °F 75.0 °F 74% 29.91 in 10.0 mi SSE 8.1 mph - N/A   Clear
8:53 PM 81.0 °F 87.3 °F 75.9 °F 85% 29.92 in 10.0 mi SSE 5.8 mph - N/A   Clear
9:53 PM 79.0 °F - 75.0 °F 88% 29.94 in 10.0 mi SSE 5.8 mph - N/A   Clear
10:53 PM 78.1 °F - 73.0 °F 84% 29.94 in 10.0 mi SSE 5.8 mph - N/A   Clear
11:53 PM 78.1 °F - 73.9 °F 87% 29.95 in 10.0 mi SSE 5.8 mph - N/A   Clear